Weather History for Chihuahua, Mexico

Change the Weather History Date:

Saturday, November 3, 2012

  Actual Average Record
Temperature  
Mean Temperature 64 °F -  
Max Temperature 77 °F 69 °F 86 °F (1996)
Min Temperature 50 °F 38 °F 26 °F (2004)
Degree Days  
Heating Degree Days 1    
Growing Degree Days 14 (Base 50)    
Moisture  
Dew Point 36 °F    
Average Humidity 34    
Maximum Humidity 61    
Minimum Humidity 17    
Precipitation  
Precipitation 0.00 in - - ()
Sea Level Pressure  
Sea Level Pressure 30.00 in    
Wind  
Wind Speed 3 mph ()    
Max Wind Speed 10 mph    
Max Gust Speed -    
Visibility 8.6 miles    
Events      
Averages and records for this station are not official NWS values.
T = Trace of Precipitation, MM = Missing Value Source: Averaged Metar Reports

Daily Weather History Graph

Daily Weather History Graph

Search for Another Location

Airport:

Trip Planner

Search our weather history database for the weather conditions in past years. The results will help you decide how hot, cold, wet, or windy it might be!

Date:

Astronomy

Nov. 03, 2012 Rise Set
Actual Time 6:17 AM MST 5:16 PM MST
Civil Twilight 5:53 AM MST 5:41 PM MST
Nautical Twilight 5:25 AM MST 6:09 PM MST
Astronomical Twilight 4:57 AM MST 6:36 PM MST
Moon 9:07 PM MST (11/3) 10:15 AM MST (11/3)
Length of Visible Light 11h 47m
Length of Day
10h 58m
Waning Gibbous, 79% of the Moon is Illuminated
Nov 3
Waning Gibbous
Nov 6
Last Quarter
Nov 13
New
Nov 20
First Quarter
Nov 28
Full

Hourly Weather History & Observations

Time (MST) Temp. Windchill Dew Point Humidity Pressure Visibility Wind Dir Wind Speed Gust Speed Precip Events Conditions
4:45 AM 52 °F - 43 °F 61% 29.82 in 1 mi Calm Calm - -  
5:40 AM 46.4 °F 41.9 °F 32.0 °F 57% 29.96 in 10.0 mi South 9.2 mph - N/A   Clear
6:40 AM 46.4 °F 42.9 °F 32.0 °F 57% 30.15 in 10.0 mi SSE 6.9 mph - N/A   Partly Cloudy
7:40 AM 55.4 °F - 33.8 °F 44% 29.96 in 10.0 mi South 5.8 mph - N/A   Partly Cloudy
7:45 AM 60 °F - 41 °F 39% 29.90 in 6 mi ENE 2.2 mph - -  
8:40 AM 62.6 °F - 35.6 °F 37% 30.18 in 10.0 mi Calm Calm - N/A   Clear
9:40 AM 66.2 °F - 35.6 °F 32% 30.18 in 10.0 mi NW 3.5 mph - N/A   Scattered Clouds
10:40 AM 69.8 °F - 37.4 °F 31% 29.94 in 10.0 mi South 4.6 mph - N/A   Scattered Clouds
10:45 AM 73 °F - 45 °F 26% 29.88 in 6 mi ENE 2.2 mph - -   Clear
11:40 AM 71.6 °F - 37.4 °F 29% 30.15 in 10.0 mi Calm Calm - N/A   Scattered Clouds
12:40 PM 75.2 °F - 35.6 °F 24% 30.11 in 10.0 mi Calm Calm - N/A   Scattered Clouds
1:40 PM 77.0 °F - 33.8 °F 21% 29.88 in 10.0 mi WSW 4.6 mph - N/A   Scattered Clouds
1:55 PM 78 °F - 41 °F 17% 29.78 in 6 mi East 4.5 mph - -   Scattered Clouds
2:40 PM 78.8 °F - 33.8 °F 20% 30.07 in 10.0 mi NNW 3.5 mph - N/A   Scattered Clouds
3:40 PM 77.0 °F - 33.8 °F 21% 30.07 in 10.0 mi NNW 5.8 mph - N/A   Scattered Clouds
4:40 PM 73.4 °F - 33.8 °F 23% 29.89 in 10.0 mi East 10.4 mph - N/A   Scattered Clouds
4:55 PM 74 °F - 38 °F 17% 29.74 in 6 mi ENE 2.2 mph - -   Scattered Clouds
5:40 PM 64.4 °F - 33.8 °F 32% 30.10 in 10.0 mi East 5.8 mph - N/A   Partly Cloudy
6:40 PM 62.6 °F - 33.8 °F 34% 30.12 in 10.0 mi WNW 3.5 mph - N/A   Scattered Clouds
7:40 PM 60.8 °F - 33.8 °F 36% 29.96 in 10.0 mi Calm Calm - N/A   Partly Cloudy
7:50 PM 64 °F - 39 °F 28% 29.84 in 1 mi NNW 2.2 mph - -   Scattered Clouds
8:40 PM 55.4 °F - 32.0 °F 41% 30.14 in 10.0 mi SSE 5.8 mph - N/A   Partly Cloudy
9:40 PM 53.6 °F - 30.2 °F 41% 30.15 in 10.0 mi South 5.8 mph - N/A   Clear
10:40 PM 50.0 °F - 28.4 °F 43% 29.96 in 10.0 mi SSE 9.2 mph - N/A   Clear